TimeEST,TemperatureF,Dew PointF,Humidity,Sea Level PressureIn,VisibilityMPH,Wind Direction,Wind SpeedMPH,Gust SpeedMPH,PrecipitationIn,Events,Conditions,WindDirDegrees,DateUTC
12:00 AM,24.8,21.2,86,29.85,0.2,Calm,Calm,-,N/A,Fog,Light Freezing Fog,0,2004-01-27 05:00:00
12:20 AM,24.8,21.2,86,29.86,0.2,Calm,Calm,-,N/A,Fog,Light Freezing Fog,0,2004-01-27 05:20:00
12:40 AM,24.8,21.2,86,29.86,0.2,SSE,3.5,-,N/A,Fog,Light Freezing Fog,160,2004-01-27 05:40:00
1:00 AM,24.8,21.2,86,29.83,0.2,Calm,Calm,-,N/A,Fog,Light Freezing Fog,0,2004-01-27 06:00:00
1:21 AM,24.8,23.0,93,29.83,0.2,Calm,Calm,-,N/A,Fog,Light Freezing Fog,0,2004-01-27 06:21:00
1:40 AM,24.8,23.0,93,29.82,0.2,Calm,Calm,-,N/A,Fog,Light Freezing Fog,0,2004-01-27 06:40:00
2:00 AM,24.8,23.0,93,29.84,0.5,Calm,Calm,-,N/A,Fog,Light Freezing Fog,0,2004-01-27 07:00:00
2:20 AM,24.8,23.0,93,29.83,0.2,Calm,Calm,-,N/A,Fog,Light Freezing Fog,0,2004-01-27 07:20:00
2:40 AM,24.8,23.0,93,29.82,0.2,Calm,Calm,-,N/A,Fog,Light Freezing Fog,0,2004-01-27 07:40:00
3:00 AM,24.8,23.0,93,29.81,0.2,Calm,Calm,-,N/A,Fog,Light Freezing Fog,0,2004-01-27 08:00:00
3:21 AM,24.8,21.2,86,29.80,0.2,Calm,Calm,-,N/A,Fog,Light Freezing Fog,0,2004-01-27 08:21:00
3:40 AM,23.0,21.2,93,29.80,0.2,Calm,Calm,-,N/A,Fog,Light Freezing Fog,0,2004-01-27 08:40:00
4:01 AM,24.8,21.2,86,29.80,0.2,Calm,Calm,-,N/A,Fog,Light Freezing Fog,0,2004-01-27 09:01:00
4:20 AM,23.0,21.2,93,29.79,0.2,Calm,Calm,-,N/A,Fog,Light Freezing Fog,0,2004-01-27 09:20:00
4:40 AM,23.0,21.2,93,29.79,0.2,Calm,Calm,-,N/A,Fog,Light Freezing Fog,0,2004-01-27 09:40:00
5:00 AM,23.0,21.2,93,29.79,0.2,Calm,Calm,-,N/A,Fog,Light Freezing Fog,0,2004-01-27 10:00:00
5:20 AM,23.0,21.2,93,29.79,0.2,Calm,Calm,-,N/A,Snow,Light Snow,0,2004-01-27 10:20:00
5:40 AM,23.0,21.2,93,29.78,0.5,Calm,Calm,-,N/A,Snow,Light Snow,0,2004-01-27 10:40:00
6:02 AM,23.0,21.2,93,29.78,0.5,Calm,Calm,-,N/A,Fog,Light Freezing Fog,0,2004-01-27 11:02:00
6:20 AM,21.2,19.4,93,29.78,0.5,Calm,Calm,-,N/A,Fog,Light Freezing Fog,0,2004-01-27 11:20:00
6:40 AM,23.0,19.4,86,29.78,1.0,Calm,Calm,-,N/A,Snow,Light Snow,0,2004-01-27 11:40:00
7:00 AM,21.2,19.4,93,29.77,0.8,SSE,4.6,-,N/A,Snow,Light Snow,150,2004-01-27 12:00:00
7:21 AM,21.2,19.4,93,29.76,1.0,SSE,3.5,-,N/A,Snow,Light Snow,150,2004-01-27 12:21:00
7:40 AM,21.2,19.4,93,29.76,0.8,SSE,3.5,-,N/A,Snow,Light Snow,160,2004-01-27 12:40:00
8:00 AM,21.2,19.4,93,29.76,1.2,Calm,Calm,-,N/A,Snow,Light Snow,0,2004-01-27 13:00:00
8:20 AM,23.0,19.4,86,29.76,0.8,Calm,Calm,-,N/A,Snow,Light Snow,0,2004-01-27 13:20:00
8:40 AM,23.0,21.2,93,29.76,0.5,Calm,Calm,-,N/A,Snow,Light Snow,0,2004-01-27 13:40:00
9:00 AM,23.0,21.2,93,29.75,0.2,Calm,Calm,-,N/A,Snow,Light Snow,0,2004-01-27 14:00:00
9:20 AM,24.8,21.2,86,29.75,0.2,Calm,Calm,-,N/A,Fog,Light Freezing Fog,0,2004-01-27 14:20:00
9:40 AM,24.8,21.2,86,29.73,0.2,Calm,Calm,-,N/A,Fog,Light Freezing Fog,0,2004-01-27 14:40:00
10:01 AM,24.8,23.0,93,29.73,0.5,Calm,Calm,-,N/A,,Overcast,0,2004-01-27 15:01:00
10:20 AM,24.8,23.0,93,-9999,3.0,Calm,Calm,-,N/A,,Overcast,0,2004-01-27 15:20:00
10:40 AM,26.6,26.6,100,29.72,4.0,Calm,Calm,-,N/A,,Overcast,0,2004-01-27 15:40:00
11:01 AM,26.6,26.6,100,29.71,3.0,Calm,Calm,-,N/A,,Overcast,0,2004-01-27 16:01:00
11:20 AM,26.6,26.6,100,29.71,4.0,Calm,Calm,-,N/A,,Overcast,0,2004-01-27 16:20:00
11:40 AM,30.2,28.4,93,29.70,4.0,Calm,Calm,-,N/A,,Overcast,0,2004-01-27 16:40:00
12:00 PM,30.2,28.4,93,29.69,2.0,Calm,Calm,-,N/A,Snow,Light Snow,0,2004-01-27 17:00:00
12:20 PM,30.2,28.4,93,29.67,4.0,Calm,Calm,-,N/A,,Overcast,0,2004-01-27 17:20:00
12:40 PM,32.0,30.2,93,29.66,7.0,SW,3.5,-,N/A,,Overcast,230,2004-01-27 17:40:00
1:00 PM,32.0,30.2,93,29.65,10.0,WSW,5.8,-,N/A,,Overcast,250,2004-01-27 18:00:00
1:21 PM,35.6,33.8,93,29.63,10.0,West,6.9,-,N/A,,Mostly Cloudy,270,2004-01-27 18:21:00
1:40 PM,35.6,30.2,81,29.63,10.0,West,11.5,26.5,N/A,,Mostly Cloudy,270,2004-01-27 18:40:00
2:00 PM,35.6,30.2,81,29.63,10.0,West,11.5,17.3,N/A,,Overcast,270,2004-01-27 19:00:00
2:21 PM,35.6,30.2,81,29.63,2.5,West,13.8,23.0,0.03,Snow,Light Snow,280,2004-01-27 19:21:00
2:40 PM,35.6,28.4,75,29.63,7.0,West,17.3,28.8,0.04,,Overcast,280,2004-01-27 19:40:00
3:00 PM,32.0,26.6,80,29.64,2.5,West,16.1,24.2,N/A,,Haze,270,2004-01-27 20:00:00
3:20 PM,30.2,24.8,80,29.64,7.0,West,17.3,38.0,0.01,,Overcast,270,2004-01-27 20:20:00
3:40 PM,30.2,24.8,80,29.65,2.5,West,13.8,21.9,0.01,Snow,Light Snow,270,2004-01-27 20:40:00
4:01 PM,30.2,21.2,69,29.64,10.0,WSW,17.3,29.9,N/A,,Overcast,250,2004-01-27 21:01:00
4:20 PM,30.2,21.2,69,29.64,4.0,WNW,27.6,42.6,N/A,Snow,Light Snow,290,2004-01-27 21:20:00
4:40 PM,30.2,23.0,75,29.65,4.0,WNW,24.2,33.4,N/A,Snow,Light Snow,290,2004-01-27 21:40:00
5:00 PM,26.6,21.2,80,29.66,0.8,West,25.3,38.0,N/A,Snow,Light Snow,280,2004-01-27 22:00:00
5:20 PM,26.6,19.4,74,29.66,2.5,West,21.9,36.8,N/A,Snow,Light Snow,280,2004-01-27 22:20:00
5:42 PM,24.8,19.4,80,29.68,0.8,West,18.4,39.1,N/A,Snow,Light Snow,270,2004-01-27 22:42:00
6:00 PM,24.8,17.6,74,29.69,1.8,West,18.4,34.5,N/A,Snow,Light Snow,280,2004-01-27 23:00:00
6:20 PM,24.8,15.8,69,29.70,2.5,WNW,13.8,35.7,N/A,Snow,Light Snow,300,2004-01-27 23:20:00
6:40 PM,23.0,14.0,68,29.69,10.0,WNW,21.9,36.8,N/A,,Overcast,300,2004-01-27 23:40:00
7:00 PM,21.2,14.0,74,29.71,5.0,WNW,13.8,43.7,0.01,Snow,Light Snow,290,2004-01-28 00:00:00
7:23 PM,21.2,15.8,80,29.70,3.0,WNW,18.4,29.9,0.01,Snow,Light Snow,290,2004-01-28 00:23:00
7:40 PM,21.2,12.2,68,29.70,5.0,West,25.3,43.7,0.01,Snow,Light Snow,280,2004-01-28 00:40:00
8:00 PM,21.2,12.2,68,29.69,5.0,WNW,29.9,42.6,N/A,Snow,Light Snow,300,2004-01-28 01:00:00
8:20 PM,21.2,14.0,74,29.70,5.0,West,17.3,29.9,N/A,Snow,Light Snow,270,2004-01-28 01:20:00
8:40 PM,21.2,12.2,68,29.70,3.0,West,31.1,42.6,N/A,Snow,Light Snow,280,2004-01-28 01:40:00
9:00 PM,19.4,12.2,74,29.71,2.5,West,18.4,42.6,N/A,Snow,Light Snow,270,2004-01-28 02:00:00
9:20 PM,19.4,10.4,68,29.69,4.0,West,32.2,52.9,N/A,Snow,Light Snow,270,2004-01-28 02:20:00
9:40 PM,19.4,10.4,68,29.69,5.0,WNW,26.5,46.0,N/A,Snow,Light Snow,290,2004-01-28 02:40:00
10:00 PM,19.4,10.4,68,29.70,4.0,WNW,19.6,44.9,N/A,Snow,Light Snow,300,2004-01-28 03:00:00
10:20 PM,19.4,10.4,68,29.69,7.0,West,18.4,38.0,N/A,Snow,Light Snow,280,2004-01-28 03:20:00
10:41 PM,17.6,10.4,73,29.68,1.8,WNW,23.0,52.9,0.01,Snow,Light Snow,300,2004-01-28 03:41:00
11:00 PM,17.6,8.6,68,29.69,10.0,WNW,24.2,47.2,N/A,,Scattered Clouds,300,2004-01-28 04:00:00
11:20 PM,17.6,8.6,68,29.70,7.0,WNW,23.0,39.1,N/A,,Scattered Clouds,290,2004-01-28 04:20:00
11:40 PM,17.6,8.6,68,29.70,7.0,WNW,19.6,42.6,N/A,Snow,Light Snow,300,2004-01-28 04:40:00